Content
SEND FEEDBACK

Daily
Averages
Monthly
Summary
United States of America

GLEN CANYON CITY, UTAH


Home > North America > United States > Utah
Elevation: 4133 feet     Latitude: 37 05N     Longitude: 111 40W

WEATHER
 
SELECT A DAY
Number of Records: 197,308;   Date Range: 1/1/95 - 10/29/14
 
SHARE

PRINT THIS DATA

[ ← Previous Day ]
WEATHER ALMANAC - OCTOBER 5, 2013
[ Next Day → ]
[ °C ]   °F
Weather ElementAverageHighLow
Temperature52.9 °F63 °F (3:53 pm)43 °F (4:53 am)
Dewpoint22.3 °F27 °F (8:53 pm)19 °F (2:53 am)
Humidity31.4 %45 % (4:53 am)18 % (3:53 pm)
Barometer30.30 in30.38 in (9:53 am)30.26 in (2:53 pm)
Wind Speed2.3 mph8.1 mph (2:53 am)
Weather ElementAverage
Visibility10 mi
Wind DirectionENE (84.3 °)

Weather ElementTotal
Precipitation---
Heating Degree Days12 (Base 65)
Growing Degree Days3 (Base 50)
Averaged from 23 records on October 5, 2013
WEATHER CONDITIONS BREAKOUT
WIND DIRECTION BREAKOUT
WEATHER BY HOUR - OCTOBER 5, 2013
[ °C ]   °F
Local TimeTemperatureDewpointHumidityBarometerVisibilityWind DirectionWind SpeedGust SpeedPrecipitationEventsConditions
1:53 AM48.0 °F19.9 °F33 %30.27 in10.0 miWNW (290°)5.8 mphClear
2:53 AM46.9 °F19.0 °F33 %30.27 in10.0 miNW (310°)8.1 mphClear
3:53 AM46.0 °F21.0 °F37 %30.27 in10.0 miNW (310°)4.6 mphClear
4:53 AM43.0 °F23.0 °F45 %30.30 in10.0 miCalmClear
5:53 AM43.0 °F21.0 °F42 %30.31 in10.0 miSSW (210°)3.5 mphClear
6:53 AM44.1 °F21.0 °F40 %30.33 in10.0 miCalmClear
7:53 AM48.0 °F21.0 °F34 %30.35 in10.0 miCalmClear
8:53 AM51.1 °F21.9 °F32 %30.36 in10.0 miNorth (350°)3.5 mphClear
9:53 AM53.1 °F21.9 °F30 %30.38 in10.0 miVariable3.5 mphClear
10:53 AM55.9 °F23.0 °F28 %30.36 in10.0 miNorth (10°)5.8 mphClear
11:53 AM57.9 °F21.9 °F25 %30.34 in10.0 miNorth (350°)5.8 mphClear
12:53 PM60.1 °F23.0 °F24 %30.31 in10.0 miVariable4.6 mphClear
1:53 PM61.0 °F21.9 °F22 %30.28 in10.0 miNorth (10°)3.5 mphClear
2:53 PM62.1 °F21.0 °F21 %30.26 in10.0 miCalmClear
3:53 PM63.0 °F19.0 °F18 %30.26 in10.0 miCalmClear
4:53 PM63.0 °F19.9 °F19 %30.26 in10.0 miCalmClear
5:53 PM59.0 °F21.0 °F23 %30.27 in10.0 miEast (100°)4.6 mphClear
6:53 PM57.0 °F21.9 °F26 %30.28 in10.0 miCalmClear
7:53 PM54.0 °F25.0 °F33 %30.29 in10.0 miCalmClear
8:53 PM52.0 °F27.0 °F38 %30.29 in10.0 miCalmClear
9:53 PM51.1 °F27.0 °F39 %30.30 in10.0 miCalmClear
10:53 PM50.0 °F26.1 °F39 %30.30 in10.0 miCalmClear
11:53 PM48.0 °F25.0 °F41 %30.29 in10.0 miCalmClear
Hourly data recorded from KPGA, located miles away from Glen Canyon City, Utah







STORIES FROM OUR PARTNERS